Location: Newark
(44.4156°N, 12.1972°E)
Time: 08:58:10
(UTC+00:00)

STARLINK-1126 - Pass Details

Date: 29 January 2020
Orbit: 348 x 351 km, 53.0° (Epoch: 22 February)

Event Time Altitude Azimuth Distance (km) Brightness Sun altitude
Rises 17:49:24 0° 306° (NW) 2,168 7.4 -16.8°
Reaches altitude 10° 17:51:28 10° 312° (NW) 1,322 6.1 -17.2°
Enters shadow 17:54:03 45° 8° (N) 491 3.2 -17.7°
